Waarnemingen

Advertentie
Mijn weer
Paharova, Zweden (2184): temperatuur & dauwpunt: 14.10.2020 18:00:00 - 20.10.2020 18:00:00 (CEST)Paharova, Zweden (2184): windsnelheid & windstoten: 14.10.2020 18:00:00 - 20.10.2020 18:00:00 (CEST)Paharova, Zweden (2184): windrichting: 14.10.2020 18:00:00 - 20.10.2020 18:00:00 (CEST)Paharova, Zweden (2184): luchtdruk: 14.10.2020 18:00:00 - 20.10.2020 18:00:00 (CEST)Paharova, Zweden (2184): zicht: 14.10.2020 18:00:00 - 20.10.2020 18:00:00 (CEST)Paharova, Zweden (2184): neerslag: 14.10.2020 18:00:00 - 20.10.2020 18:00:00 (CEST)
Datum & Tijd tt [°C] td [°C] ff [km/u] ff [kn] fx [km/u] fx [kn] dd ppp [hPa] vv [km] rr [mm]
20.10.2020 18:00:00 -4,2 -4,6 6 3 18 10 N 1017,9 1,4 0,2
20.10.2020 17:00:00 -3,9 -4,3 6 3 12 7 N 1018,3 50 0,0
20.10.2020 16:00:00 -3,1 -3,9 6 3 12 6 N 1018,4 50 0,0
20.10.2020 15:00:00 -3,0 -4,0 5 3 9 5 N 1018,5 50 0,0
20.10.2020 14:00:00 -2,8 -4,7 0 0 6 3 N 1018,4 50 0,0
20.10.2020 13:00:00 -2,7 -4,4 3 2 9 5 WNW 1018,3 50 0,0
20.10.2020 12:00:00 -4,1 -5,5 3 2 8 5 NW 1018,4 50 0,0
20.10.2020 11:00:00 -5,7 -6,6 2 1 7 4 NW 1018,5 50 0,0
20.10.2020 10:00:00 -7,7 -8,8 4 2 10 5 NW 1018,5 50 0,0
20.10.2020 09:00:00 -9,3 -10,2 3 2 8 4 NW 1018,6 50 0,0
20.10.2020 08:00:00 -9,8 -11,0 4 2 8 4 WNW 1018,3 50 0,0
20.10.2020 07:00:00 -9,7 -10,8 3 1 8 4 NW 1018,0 50 0,0
20.10.2020 06:00:00 -9,6 -10,5 5 3 8 4 WNW 1018,0 50 0,0
20.10.2020 05:00:00 -9,1 -9,8 3 2 6 4 WNW 1017,8 50 0,0
20.10.2020 04:00:00 -8,9 -9,8 2 1 15 8 W 1017,9 50 0,0
20.10.2020 03:00:00 -6,7 -7,5 6 4 14 7 N 1017,5 50 0,0
20.10.2020 02:00:00 -5,1 -6,6 7 4 14 7 N 1017,4 50 0,0
20.10.2020 01:00:00 -5,4 -6,6 5 3 13 7 NNW 1017,2 50 0,0
20.10.2020 00:00:00 -5,6 -6,8 5 3 15 8 NW 1016,9 50 0,0
19.10.2020 23:00:00 -3,7 -5,9 8 5 21 11 N 1016,7 50 0,0
19.10.2020 22:00:00 -3,5 -5,7 8 4 21 11 N 1016,7 50 0,0
19.10.2020 21:00:00 -2,9 -5,5 9 5 22 12 N 1016,5 50 0,0
19.10.2020 20:00:00 -2,8 -5,4 12 6 26 14 N 1016,2 50 0,0
19.10.2020 19:00:00 -2,7 -5,0 13 7 26 14 N 1016,0 50 0,0
19.10.2020 18:00:00 -2,4 -4,7 14 8 26 14 N 1015,8 50 0,0
19.10.2020 17:00:00 -2,4 -4,6 14 8 26 14 N 1015,7 50 0,0
19.10.2020 16:00:00 -2,5 -4,4 10 6 21 11 N 1015,5 50 0,0
19.10.2020 15:00:00 -2,0 -4,0 9 5 23 12 N 1014,9 50 0,0
19.10.2020 14:00:00 -1,4 -3,9 15 8 32 17 N 1014,5 50 0,0
19.10.2020 13:00:00 -1,5 -3,8 15 8 29 15 N 1013,9 50 0,0
19.10.2020 12:00:00 -1,6 -4,1 15 8 30 16 NNO 1013,1 50 0,0
19.10.2020 11:00:00 -1,4 -3,6 18 10 34 19 NNO 1012,2 50 0,0
19.10.2020 10:00:00 -1,2 -2,9 18 10 36 19 NNO 1011,1 50 0,0
19.10.2020 09:00:00 -1,4 -2,2 19 10 39 21 NNO 1010,3 34 0,2
19.10.2020 08:00:00 -1,5 -1,9 19 10 32 18 NNO 1009,4 2,7 0,3
19.10.2020 07:00:00 -1,6 -2,2 18 10 35 19 N 1008,7 1,8 0,1
19.10.2020 06:00:00 -1,6 -2,3 21 11 39 21 N 1007,9 4,9 0,2
19.10.2020 05:00:00 -1,8 -2,4 21 11 41 22 NNO 1007,1 2,5 0,3
19.10.2020 04:00:00 -1,9 -2,5 22 12 44 24 NNO 1006,5 2,2 0,3
19.10.2020 03:00:00 -1,9 -2,5 25 13 45 24 NNO 1005,7 1,5 0,4
19.10.2020 02:00:00 -2,2 -2,9 27 15 47 26 N 1004,8 1,4 0,3
19.10.2020 01:00:00 -2,5 -3,0 25 14 51 28 N 1004,2 1,2 0,3
19.10.2020 00:00:00 -2,4 -3,4 29 16 53 29 N 1003,5 2,5 0,2
18.10.2020 23:00:00 -2,3 -3,4 30 16 57 31 NNO 1003,0 3,0 0,2
18.10.2020 22:00:00 -2,4 -3,5 30 16 58 31 NNO 1002,8 2,1 0,2
18.10.2020 21:00:00 -2,3 -3,6 31 17 57 31 NNO 1002,3 1,6 0,1
18.10.2020 20:00:00 -2,0 -3,7 31 17 62 34 NNO 1002,2 2,0 0,1
18.10.2020 19:00:00 -1,8 -4,0 30 16 57 31 NNO 1001,9 4,4 0,0
18.10.2020 18:00:00 -1,8 -4,1 33 18 54 29 N 1001,6 9 0,2
18.10.2020 17:00:00 -1,8 -4,3 29 16 76 41 N 1001,5 - 0,0
18.10.2020 16:00:00 -1,9 -4,4 31 17 61 33 NNO 1001,4 - 0,0
18.10.2020 15:00:00 -2,1 -4,4 30 16 61 33 N 1001,4 - 0,0
18.10.2020 14:00:00 -2,2 -4,4 27 15 59 32 NNO 1001,9 - 0,0
18.10.2020 13:00:00 -2,4 -3,4 27 15 57 31 NNO 1002,0 - 0,3
18.10.2020 12:00:00 -2,8 -3,3 30 16 58 32 NNO 1001,8 - 0,3
18.10.2020 11:00:00 -2,6 -3,6 27 15 54 29 N 1001,9 - 0,0
18.10.2020 10:00:00 -2,8 -3,6 33 18 57 31 N 1001,7 - 0,2
18.10.2020 09:00:00 -2,8 -3,9 29 16 54 29 NNO 1001,5 - 0,0
18.10.2020 08:00:00 -2,7 -4,1 31 17 58 31 N 1001,2 - 0,0
18.10.2020 07:00:00 -2,7 -3,5 31 17 64 35 N 1001,0 - 0,0
18.10.2020 06:00:00 -2,5 -3,3 33 18 59 32 N 1000,7 - 0,2
18.10.2020 05:00:00 -2,4 -3,1 32 17 66 35 NNO 1000,6 - 0,3
18.10.2020 04:00:00 -2,4 -3,0 37 20 64 35 NNO 1000,2 - 0,0
18.10.2020 03:00:00 -2,4 -3,0 35 19 61 33 NNO 999,9 1,0 0,4
18.10.2020 02:00:00 -2,4 -3,0 30 16 59 32 NNO 999,8 0,7 0,8
18.10.2020 01:00:00 -2,4 -2,8 28 15 51 28 NNO 999,7 0,7 0,9
18.10.2020 00:00:00 -2,1 -2,5 24 13 48 26 NNO 999,5 1,3 0,3
17.10.2020 23:00:00 -1,6 -2,0 29 15 54 29 NNO 999,1 3,9 0,4
17.10.2020 22:00:00 -1,4 -1,5 26 14 48 26 NNO 998,6 1,0 0,6
17.10.2020 21:00:00 -1,1 -1,2 20 11 39 21 NNO 998,3 1,4 0,7
17.10.2020 20:00:00 -0,7 -0,8 18 10 35 19 NNO 997,8 0,9 0,8
17.10.2020 19:00:00 -0,2 -0,3 13 7 30 16 NNO 997,5 1,2 0,7
17.10.2020 18:00:00 0,0 -0,1 14 8 27 14 NNO 997,3 1,4 0,3
17.10.2020 17:00:00 0,7 0,3 10 6 24 13 NNO 997,2 16 0,1
17.10.2020 16:00:00 3,5 3,2 0 0 3 2 N 996,9 42 0,0
17.10.2020 15:00:00 3,7 3,3 0 0 4 2 N 997,1 50 0,0
17.10.2020 14:00:00 3,8 3,5 0 0 10 5 N 997,5 26 1,0
17.10.2020 13:00:00 3,8 3,5 3 2 6 3 Z 997,9 10 1,2
17.10.2020 12:00:00 3,6 3,3 2 1 12 6 Z 998,4 8 0,7
17.10.2020 11:00:00 3,5 3,2 6 3 13 7 ZZO 998,7 20 0,3
17.10.2020 10:00:00 3,2 2,9 6 3 12 7 Z 999,3 15 0,1
17.10.2020 09:00:00 2,9 2,6 6 3 12 6 Z 1000,0 26 0,4
17.10.2020 08:00:00 2,6 2,2 6 3 12 6 Z 1000,6 12 0,4
17.10.2020 07:00:00 2,7 2,0 6 3 15 8 Z 1001,4 22 0,3
17.10.2020 06:00:00 2,9 2,0 6 4 13 7 Z 1002,3 31 0,1
17.10.2020 05:00:00 2,8 2,1 5 3 9 5 ZZO 1003,6 12 0,4
17.10.2020 04:00:00 2,3 1,4 3 2 8 5 ZZO 1004,6 10 0,7
17.10.2020 03:00:00 2,5 0,7 3 2 10 5 Z 1005,6 50 0,0
17.10.2020 02:00:00 2,2 0,7 5 3 10 6 Z 1006,6 50 0,0
17.10.2020 01:00:00 2,4 0,6 6 3 10 5 Z 1007,5 50 0,0
17.10.2020 00:00:00 2,3 0,8 5 3 10 5 Z 1008,8 50 0,0
16.10.2020 23:00:00 2,8 1,0 5 3 11 6 Z 1009,8 50 0,0
16.10.2020 22:00:00 2,9 0,8 6 3 11 6 Z 1010,8 50 0,0
16.10.2020 21:00:00 2,7 0,6 6 3 13 7 Z 1011,7 50 0,0
16.10.2020 20:00:00 3,6 0,6 5 3 10 6 Z 1012,5 50 0,0
16.10.2020 19:00:00 2,9 0,8 3 2 9 5 ZZW 1013,3 50 0,0
16.10.2020 18:00:00 1,7 0,7 5 3 12 6 ZW 1014,1 50 0,0
16.10.2020 17:00:00 2,0 0,8 5 3 11 6 ZW 1014,7 50 0,0
16.10.2020 16:00:00 3,5 1,5 4 2 10 5 ZZW 1015,3 50 0,0
16.10.2020 15:00:00 3,4 1,4 5 3 10 6 ZW 1016,1 50 0,0
16.10.2020 14:00:00 3,7 1,4 5 3 11 6 ZW 1016,8 50 0,0
16.10.2020 13:00:00 2,8 0,7 5 3 10 6 ZW 1017,3 50 0,0
16.10.2020 12:00:00 1,7 0,1 4 2 9 5 ZW 1018,0 50 0,0
16.10.2020 11:00:00 1,2 -0,3 3 2 8 4 ZW 1018,1 50 0,0
16.10.2020 10:00:00 0,5 -0,8 4 2 6 4 Z 1018,5 50 0,0
16.10.2020 09:00:00 0,2 -0,8 0 0 7 4 N 1018,6 50 0,0
16.10.2020 08:00:00 -0,5 -0,9 2 1 7 4 WNW 1018,6 50 0,0
16.10.2020 07:00:00 -0,6 -1,0 2 1 6 3 W 1018,8 50 0,0
16.10.2020 06:00:00 -0,7 -1,1 0 0 5 3 N 1019,0 50 0,0
16.10.2020 05:00:00 -1,1 -1,5 0 0 6 3 N 1019,3 50 0,0
16.10.2020 04:00:00 -1,2 -1,5 4 2 8 5 W 1019,4 50 0,0
16.10.2020 03:00:00 -1,5 -1,8 3 2 10 5 WNW 1019,7 50 0,0
16.10.2020 02:00:00 -2,2 -2,5 5 3 10 5 WNW 1019,8 50 0,0
16.10.2020 01:00:00 -1,9 -2,0 3 2 11 6 NW 1019,9 50 0,0
16.10.2020 00:00:00 -1,7 -2,0 3 1 9 5 WNW 1019,8 50 0,0
15.10.2020 23:00:00 -1,6 -1,9 4 2 12 7 WNW 1019,6 50 0,0
15.10.2020 22:00:00 -1,2 -1,5 4 2 11 6 WNW 1019,4 50 0,0
15.10.2020 21:00:00 -1,1 -1,4 4 2 12 7 WNW 1019,1 50 0,0
15.10.2020 20:00:00 -0,9 -1,2 3 2 11 6 WNW 1019,1 50 0,0
15.10.2020 19:00:00 -0,3 -0,9 6 3 13 7 WNW 1018,9 50 0,0
15.10.2020 18:00:00 0,8 -0,2 4 2 12 7 WNW 1018,8 50 0,0
15.10.2020 17:00:00 1,3 0,0 6 4 14 7 WNW 1019,1 50 0,0
15.10.2020 16:00:00 1,2 -0,3 4 2 12 6 WNW 1019,3 50 0,0
15.10.2020 15:00:00 2,3 0,5 5 3 13 7 WNW 1019,3 50 0,0
15.10.2020 14:00:00 2,9 0,8 5 3 16 8 WNW 1020,0 50 0,0
15.10.2020 13:00:00 2,4 0,6 4 2 13 7 WNW 1020,3 50 0,0
15.10.2020 12:00:00 2,0 0,4 5 3 15 8 WNW 1021,0 50 0,0
15.10.2020 11:00:00 1,2 -0,1 4 2 11 6 WNW 1021,1 50 0,0
15.10.2020 10:00:00 0,1 -0,8 3 2 8 4 NW 1021,5 50 0,0
15.10.2020 09:00:00 -0,8 -1,6 3 2 8 4 WNW 1021,7 50 0,0
15.10.2020 08:00:00 -1,3 -2,1 3 2 10 5 WNW 1021,9 50 0,0
15.10.2020 07:00:00 -0,6 -1,6 4 2 11 6 NW 1021,9 50 0,0
15.10.2020 06:00:00 -0,6 -1,3 4 2 14 8 WNW 1021,9 50 0,0
15.10.2020 05:00:00 -1,2 -1,8 5 3 13 7 NW 1021,8 50 0,0
15.10.2020 04:00:00 -1,0 -1,8 6 3 12 6 WNW 1021,7 50 0,0
15.10.2020 03:00:00 -1,8 -2,4 5 3 14 8 WNW 1021,6 50 0,0
15.10.2020 02:00:00 -0,9 -1,6 4 2 14 8 W 1021,5 50 0,0
15.10.2020 01:00:00 -0,3 -0,9 4 2 12 7 NNW 1021,2 50 0,0
15.10.2020 00:00:00 -0,6 -1,2 4 2 10 6 NW 1021,0 50 0,0
14.10.2020 23:00:00 0,1 -0,5 5 3 10 5 N 1020,8 50 0,0
14.10.2020 22:00:00 0,3 -0,4 3 1 9 5 NNW 1020,3 50 0,0
14.10.2020 21:00:00 0,4 0,1 3 2 13 7 NW 1020,1 50 0,0
14.10.2020 20:00:00 0,0 -0,4 5 3 13 7 W 1020,0 50 0,0
14.10.2020 19:00:00 0,7 0,0 4 2 10 6 W 1020,1 50 0,0
14.10.2020 18:00:00 1,6 0,4 4 2 11 6 WZW 1020,3 50 0,0

tt = temperatuur
td = dauwpunt
ff = windsnelheid
fx = windstoten
dd = windrichting
ppp = luchtdruk
vv = zicht
rr = neerslag

Weerstations in de omgeving